Location: Köln
(50.9375°N, 6.9603°E)
Time: 19:55:18
(UTC+01:00)

ISS - Pass Details

Date: 12 November 2025
Orbit: 414 x 421 km, 51.6° (Epoch: 07 November)

Event Time Altitude Azimuth Distance (km) Brightness Sun altitude
Rises 18:56:45 0° 201° (SSW) 2,338 0.4 -20.1°
Reaches altitude 10° 18:59:27 10° 177° (S) 1,481 -1.0 -20.5°
Enters shadow 18:59:29 10° 177° (S) 1,475 -1.0 -20.5°
